KC5AV Weather Reports


time (UTC)temp
C
wind
direction
speed
KPH
gust
KPH
rain 1hr
cm
rain 24hr
cm
rain mn
cm
humidity
%
barometer
mb
20260505075839 20 105 4.8 4.8 0.00 0.00 0.00 83 1008.7
20260505075336 20 144 9.7 9.7 0.00 0.00 0.00 83 1008.8
20260505074833 20 294 1.6 12.9 0.00 0.00 0.00 83 1008.8
20260505074331 20 163 6.4 8.0 0.00 0.00 0.00 83 1008.8
20260505073828 20 69 3.2 4.8 0.00 0.00 0.00 83 1008.6
20260505073326 20 107 3.2 8.0 0.00 0.00 0.00 83 1009.0
20260505072822 20 121 3.2 4.8 0.00 0.00 0.00 83 1009.0
20260505072319 20 233 0.0 11.3 0.00 0.00 0.00 82 1009.1
20260505071815 20 25 0.0 9.7 0.00 0.00 0.00 82 1009.2
20260505071311 20 107 3.2 4.8 0.00 0.00 0.00 82 1009.1
20260505070810 20 132 4.8 4.8 0.00 0.00 0.00 82 1009.1
20260505070306 20 89 0.0 3.2 0.00 0.00 0.00 82 1009.2
20260505065801 20 135 0.0 3.2 0.00 0.00 0.00 81 1009.4
20260505065258 20 278 3.2 6.4 0.00 0.00 0.00 81 1009.4
20260505064755 20 41 0.0 4.8 0.00 0.00 0.00 81 1009.4
20260505064252 20 124 4.8 6.4 0.00 0.00 0.00 80 1009.6
20260505063750 20 3 3.2 8.0 0.00 0.00 0.00 80 1009.5
20260505063246 20 142 0.0 6.4 0.00 0.00 0.00 80 1009.6
20260505062742 20 151 1.6 12.9 0.00 0.00 0.00 79 1009.5
20260505062240 20 116 0.0 6.4 0.00 0.00 0.00 79 1009.4
20260505061737 20 147 1.6 8.0 0.00 0.00 0.00 79 1009.6
20260505061235 20 78 3.2 6.4 0.00 0.00 0.00 79 1009.6
20260505060732 20 68 3.2 3.2 0.00 0.00 0.00 79 1009.6
20260505060229 20 131 4.8 6.4 0.00 0.00 0.00 78 1009.9
20260505055724 20 114 11.3 12.9 0.00 0.00 0.00 78 1009.9
20260505055221 20 101 4.8 4.8 0.00 0.00 0.00 78 1010.0
20260505054718 20 25 0.0 6.4 0.00 0.00 0.00 78 1009.9
20260505054216 20 104 0.0 6.4 0.00 0.00 0.00 78 1009.8
20260505053714 20 100 0.0 8.0 0.00 0.00 0.00 77 1009.9
20260505053210 20 176 3.2 9.7 0.00 0.00 0.00 77 1010.0
20260505052707 20 115 1.6 11.3 0.00 0.00 0.00 77 1009.8
20260505052204 20 120 4.8 6.4 0.00 0.00 0.00 77 1009.8
20260505051701 20 109 3.2 8.0 0.00 0.00 0.00 77 1009.7
20260505051159 20 145 3.2 3.2 0.00 0.00 0.00 76 1009.7
20260505050657 20 121 6.4 8.0 0.00 0.00 0.00 76 1009.6
20260505050155 20 132 3.2 4.8 0.00 0.00 0.00 76 1009.6
20260505041625 21 63 0.0 8.0 0.00 0.00 0.00 73 1010.1
20260505041122 21 111 0.0 9.7 0.00 0.00 0.00 74 1010.0
20260505040619 21 200 3.2 6.4 0.00 0.00 0.00 73 1009.9
20260505040116 21 130 0.0 11.3 0.00 0.00 0.00 73 1009.9
20260505035612 21 12 1.6 4.8 0.00 0.00 0.00 72 1009.9
20260505035109 21 123 3.2 8.0 0.00 0.00 0.00 72 1009.9
20260505034606 21 137 0.0 6.4 0.00 0.00 0.00 72 1009.9
20260505034102 21 113 3.2 6.4 0.00 0.00 0.00 72 1010.1
20260505033559 21 143 4.8 4.8 0.00 0.00 0.00 71 1009.9
20260505033058 21 149 0.0 3.2 0.00 0.00 0.00 71 1010.1
20260505032555 21 188 3.2 4.8 0.00 0.00 0.00 71 1010.2
20260505032051 21 168 0.0 6.4 0.00 0.00 0.00 70 1010.1
20260505031549 21 173 1.6 4.8 0.00 0.00 0.00 70 1010.2
20260505031045 21 228 0.0 3.2 0.00 0.00 0.00 70 1010.0
20260505030542 21 156 3.2 3.2 0.00 0.00 0.00 70 1010.0
20260505030038 21 83 4.8 6.4 0.00 0.00 0.00 70 1009.9
20260505025534 21 89 0.0 3.2 0.00 0.00 0.00 69 1010.0
20260505025033 21 191 0.0 4.8 0.00 0.00 0.00 69 1010.1
20260505024530 21 130 3.2 4.8 0.00 0.00 0.00 68 1009.9
20260505024027 21 110 3.2 4.8 0.00 0.00 0.00 68 1010.0
20260505023524 21 73 1.6 4.8 0.00 0.00 0.00 68 1009.9
20260505023021 21 120 0.0 4.8 0.00 0.00 0.00 68 1009.8
20260505022519 21 82 0.0 3.2 0.00 0.00 0.00 67 1010.0
20260505022016 21 119 1.6 4.8 0.00 0.00 0.00 67 1009.8
20260505021512 21 205 0.0 8.0 0.00 0.00 0.00 67 1009.7
20260505021008 21 171 0.0 4.8 0.00 0.00 0.00 66 1009.5
20260505020503 21 75 3.2 4.8 0.00 0.00 0.00 66 1009.5
20260505020000 22 134 1.6 4.8 0.00 0.00 0.00 65 1009.6
20260505015458 21 122 3.2 4.8 0.00 0.00 0.00 65 1009.4
20260505014954 22 9 1.6 4.8 0.00 0.00 0.00 65 1009.5
20260505014451 22 38 0.0 4.8 0.00 0.00 0.00 64 1009.4
20260505013949 22 86 0.0 3.2 0.00 0.00 0.00 64 1009.5
20260505013446 22 134 4.8 4.8 0.00 0.00 0.00 64 1009.5
20260505012943 22 96 3.2 3.2 0.00 0.00 0.00 63 1009.2
20260505012441 22 101 0.0 4.8 0.00 0.00 0.00 62 1009.3
20260505011937 22 110 1.6 4.8 0.00 0.00 0.00 62 1009.3
20260505011433 22 55 0.0 4.8 0.00 0.00 0.00 62 1009.5
20260505010930 22 91 1.6 3.2 0.00 0.00 0.00 61 1009.3
20260505010426 22 40 0.0 1.6 0.00 0.00 0.00 60 1009.1
20260505005922 22 209 0.0 3.2 0.00 0.00 0.00 60 1009.1
20260505005419 23 25 0.0 3.2 0.00 0.00 0.00 59 1009.1
20260505004917 23 149 3.2 3.2 0.00 0.00 0.00 57 1009.0
20260505004413 23 131 0.0 4.8 0.00 0.00 0.00 56 1009.4
20260505003910 23 142 0.0 1.6 0.00 0.00 0.00 56 1009.2
20260505003407 23 149 0.0 4.8 0.00 0.00 0.00 55 1009.4
20260505002903 24 95 1.6 4.8 0.00 0.00 0.00 53 1009.2
20260505002400 24 152 1.6 3.2 0.00 0.00 0.00 53 1009.5
20260505001858 24 32 3.2 6.4 0.00 0.00 0.00 51 1009.5
20260505001355 25 220 0.0 3.2 0.00 0.00 0.00 50 1009.9
20260505000853 25 228 0.0 3.2 0.00 0.00 0.00 50 1009.7
20260505000351 25 151 3.2 4.8 0.00 0.00 0.00 49 1009.7
20260504235847 25 116 4.8 8.0 0.00 0.00 0.00 46 1009.8
20260504235344 26 210 3.2 6.4 0.00 0.00 0.00 45 1010.0
20260504234840 26 174 1.6 4.8 0.00 0.00 0.00 45 1010.0
20260504234338 26 154 4.8 8.0 0.00 0.00 0.00 44 1010.0
20260504233834 26 234 0.0 8.0 0.00 0.00 0.00 45 1010.0
20260504233330 26 156 0.0 9.7 0.00 0.00 0.00 45 1010.0
20260504232827 26 186 1.6 6.4 0.00 0.00 0.00 45 1010.0
20260504232324 26 108 3.2 11.3 0.00 0.00 0.00 43 1010.3
20260504231821 27 277 0.0 8.0 0.00 0.00 0.00 43 1010.4
20260504231317 27 128 0.0 8.0 0.00 0.00 0.00 43 1010.6
20260504230813 27 257 1.6 8.0 0.00 0.00 0.00 43 1010.5
20260504230312 26 158 1.6 8.0 0.00 0.00 0.00 43 1010.5
20260504225810 26 278 3.2 14.5 0.00 0.00 0.00 43 1010.6
20260504225306 27 121 4.8 9.7 0.00 0.00 0.00 42 1010.5
20260504224803 27 165 3.2 12.9 0.00 0.00 0.00 42 1010.6
20260504224300 27 152 6.4 12.9 0.00 0.00 0.00 43 1010.8
20260504223757 27 206 3.2 9.7 0.00 0.00 0.00 44 1010.9
20260504223252 27 134 9.7 16.1 0.00 0.00 0.00 43 1010.8
20260504222749 26 174 0.0 20.9 0.00 0.00 0.00 44 1010.6
20260504222246 27 96 3.2 12.9 0.00 0.00 0.00 43 1010.8
20260504221744 27 112 1.6 4.8 0.00 0.00 0.00 44 1010.8
20260504221241 27 180 1.6 9.7 0.00 0.00 0.00 43 1011.0
20260504220738 27 218 3.2 6.4 0.00 0.00 0.00 44 1011.2
20260504220235 27 179 3.2 8.0 0.00 0.00 0.00 45 1011.1
20260504215732 27 289 1.6 9.7 0.00 0.00 0.00 45 1011.0
20260504215228 27 265 4.8 8.0 0.00 0.00 0.00 45 1011.1
20260504214725 27 273 3.2 4.8 0.00 0.00 0.00 46 1011.2
20260504214221 27 161 4.8 9.7 0.00 0.00 0.00 43 1011.2
20260504213718 27 334 3.2 9.7 0.00 0.00 0.00 45 1011.5
20260504213214 27 155 3.2 4.8 0.00 0.00 0.00 48 1011.4
20260504212711 27 88 1.6 8.0 0.00 0.00 0.00 45 1011.7
20260504212208 27 153 4.8 9.7 0.00 0.00 0.00 46 1011.4
20260504211705 27 249 3.2 14.5 0.00 0.00 0.00 47 1011.8
20260504211201 26 336 0.0 8.0 0.00 0.00 0.00 47 1011.8
20260504210659 27 156 4.8 12.9 0.00 0.00 0.00 45 1011.9
20260504210156 26 72 8.0 9.7 0.00 0.00 0.00 46 1012.2
20260504205653 27 123 1.6 9.7 0.00 0.00 0.00 44 1012.3
20260504205150 27 91 6.4 11.3 0.00 0.00 0.00 45 1012.3
20260504204649 27 269 0.0 8.0 0.00 0.00 0.00 48 1012.3
20260504204147 26 237 3.2 16.1 0.00 0.00 0.00 50 1012.5
20260504203646 26 130 11.3 11.3 0.00 0.00 0.00 45 1012.8
20260504203143 26 264 0.0 4.8 0.00 0.00 0.00 46 1012.8
20260504202643 26 129 3.2 11.3 0.00 0.00 0.00 48 1012.8
20260504202140 27 111 12.9 20.9 0.00 0.00 0.00 45 1012.8
20260504201637 26 259 3.2 9.7 0.00 0.00 0.00 47 1013.0
20260504201135 26 155 6.4 14.5 0.00 0.00 0.00 46 1013.1
20260504200632 26 112 3.2 8.0 0.00 0.00 0.00 46 1013.3
20260504200128 26 151 1.6 16.1 0.00 0.00 0.00 44 1013.2
20260504195624 26 100 4.8 12.9 0.00 0.00 0.00 46 1013.3
20260504195121 26 165 4.8 14.5 0.00 0.00 0.00 45 1013.5
20260504194617 26 248 1.6 6.4 0.00 0.00 0.00 46 1013.6
20260504194113 26 260 6.4 9.7 0.00 0.00 0.00 43 1013.6
20260504193610 26 254 9.7 19.3 0.00 0.00 0.00 45 1013.6
20260504193108 26 265 1.6 9.7 0.00 0.00 0.00 45 1013.9
20260504192606 26 272 9.7 9.7 0.00 0.00 0.00 43 1014.0
20260504192104 26 263 1.6 11.3 0.00 0.00 0.00 45 1014.0
20260504191602 26 160 3.2 9.7 0.00 0.00 0.00 45 1014.1
20260504191058 26 154 0.0 8.0 0.00 0.00 0.00 50 1013.9
20260504190554 26 190 3.2 4.8 0.00 0.00 0.00 47 1013.8
20260504190050 26 118 3.2 12.9 0.00 0.00 0.00 46 1014.3
20260504185548 26 168 4.8 12.9 0.00 0.00 0.00 45 1014.3
20260504185044 26 76 11.3 11.3 0.00 0.00 0.00 45 1014.1
20260504184539 26 184 4.8 4.8 0.00 0.00 0.00 46 1014.3
20260504184035 26 191 6.4 6.4 0.00 0.00 0.00 47 1014.4
20260504183532 26 349 3.2 9.7 0.00 0.00 0.00 47 1014.7
20260504183030 26 135 3.2 12.9 0.00 0.00 0.00 48 1014.6
20260504182527 25 298 3.2 6.4 0.00 0.00 0.00 47 1014.8
20260504182024 25 244 6.4 8.0 0.00 0.00 0.00 48 1014.7
20260504181521 25 303 3.2 6.4 0.00 0.00 0.00 46 1014.8
20260504181020 26 194 4.8 6.4 0.00 0.00 0.00 48 1015.0
20260504180518 25 254 4.8 8.0 0.00 0.00 0.00 50 1015.0
20260504180017 25 93 3.2 9.7 0.00 0.00 0.00 47 1015.1
20260504175513 25 318 0.0 14.5 0.00 0.00 0.00 49 1015.4
20260504175010 25 275 4.8 16.1 0.00 0.00 0.00 51 1015.3
20260504174508 25 116 3.2 9.7 0.00 0.00 0.00 51 1015.4
20260504174005 25 291 3.2 9.7 0.00 0.00 0.00 46 1015.4
20260504173501 25 265 8.0 8.0 0.00 0.00 0.00 47 1015.8
20260504172959 25 274 3.2 9.7 0.00 0.00 0.00 48 1015.6
20260504172455 25 208 8.0 11.3 0.00 0.00 0.00 46 1015.6
20260504171951 25 165 3.2 6.4 0.00 0.00 0.00 48 1015.4
20260504171449 25 36 1.6 16.1 0.00 0.00 0.00 49 1015.7
20260504170945 25 286 4.8 16.1 0.00 0.00 0.00 48 1015.6
20260504170441 25 242 0.0 9.7 0.00 0.00 0.00 50 1015.9
20260504160401 23 133 0.0 8.0 0.00 0.00 0.00 55 1016.3
20260504150826 22 63 1.6 9.7 0.00 0.00 0.00 59 1016.4
20260504150322 22 167 3.2 12.9 0.00 0.00 0.00 58 1016.5
20260504141252 20 83 0.0 8.0 0.00 0.00 0.00 69 1016.9
20260504140749 18 159 0.0 3.2 0.00 0.00 0.00 69 1016.7
20260504140244 18 269 3.2 6.4 0.00 0.00 0.00 69 1016.6
20260504130713 15 142 0.0 6.4 0.00 0.00 0.00 85 1016.8
20260504130209 14 119 3.2 6.4 0.00 0.00 0.00 88 1016.7
20260504120133 10 80 3.2 3.2 0.00 0.00 0.00 96 1016.4
20260504110600 10 101 3.2 3.2 0.00 0.00 0.00 95 1015.9
20260504100522 11 89 0.0 1.6 0.00 0.00 0.00 93 1016.7
20260504081915 13 74 1.6 3.2 0.00 0.00 0.00 87 1016.4
20260504081412 13 93 0.0 3.2 0.00 0.00 0.00 87 1016.5
20260504080908 13 89 0.0 3.2 0.00 0.00 0.00 86 1016.5
20260504080405 13 85 0.0 3.2 0.00 0.00 0.00 85 1016.3